sat.trackr.live / text

‹ back to catalog

KINEIS-1B

NORAD 60079 · 2024-114A

PAYLOAD ACTIVE UNKNOWN

§ Identity

Operator
Country
FR
Launch date
2024-06-20
Launch site
RLLB
Launch vehicle
Mass (kg)
RCS (m²)

External: N2YO · Heavens-Above · Gunter

§ Orbital elements

Epoch: 2026-05-25T03:24:29.923200Z

Period
97.26 min
Inclination
97.9834°
Eccentricity
0.0003166
Mean motion
14.80579407 rev/d
Perigee alt
625.3 km
Apogee alt
629.7 km
Semi-major
7,005.6 km
B*
9.0458e-5
RAAN
169.4387°
Arg perigee
142.5260°
Mean anomaly
217.6173°
Rev number
10,399

§ Raw data

KINEIS-1B1 60079U 24114A   26145.14201300  .00000641  00000+0  90458-4 0  99932 60079  97.9834 169.4387 0003166 142.5260 217.6173 14.80579407103992

JSON: /api/v1/satellites/60079 · /tle

For live sub-satellite position, see the globe view (requires WebGL).

§ Visibility from observer

Set your observer location to see the next 7 days of passes ≥ 10°. The values pass through the URL so the page stays shareable.

No JS? Fill the form by hand. The geolocation button needs JavaScript.

§ Radio — SatNOGS DB

ModeDescriptionDownlinkUplink
FSK Mode U - Telemetry 400.657 MHz
BPSK S-band telemetry 2.266 GHz

2 transmitters · refreshed weekly from db.satnogs.org